TimeEST,TemperatureF,Dew PointF,Humidity,Sea Level PressureIn,VisibilityMPH,Wind Direction,Wind SpeedMPH,Gust SpeedMPH,PrecipitationIn,Events,Conditions,WindDirDegrees,DateUTC
12:53 AM,61.0,48.9,64,30.21,10.0,SSW,5.8,-,N/A,,Overcast,210,2012-12-03 05:53:00
1:53 AM,62.1,48.9,62,30.21,10.0,SW,6.9,-,N/A,,Overcast,220,2012-12-03 06:53:00
2:53 AM,60.1,48.9,67,30.22,10.0,SSW,3.5,-,N/A,,Mostly Cloudy,210,2012-12-03 07:53:00
3:53 AM,59.0,48.9,69,30.21,10.0,SSW,3.5,-,N/A,,Mostly Cloudy,200,2012-12-03 08:53:00
4:53 AM,59.0,48.9,69,30.21,10.0,SSW,3.5,-,N/A,,Overcast,200,2012-12-03 09:53:00
5:53 AM,59.0,48.9,69,30.22,10.0,SSW,4.6,-,N/A,,Scattered Clouds,210,2012-12-03 10:53:00
6:53 AM,55.9,48.0,75,30.23,10.0,South,4.6,-,N/A,,Partly Cloudy,190,2012-12-03 11:53:00
7:53 AM,57.0,48.9,74,30.24,10.0,South,5.8,-,N/A,,Mostly Cloudy,180,2012-12-03 12:53:00
8:53 AM,57.9,48.9,72,30.25,10.0,Calm,Calm,-,N/A,,Overcast,0,2012-12-03 13:53:00
9:53 AM,64.0,50.0,60,30.25,10.0,SW,9.2,-,N/A,,Overcast,220,2012-12-03 14:53:00
10:53 AM,64.9,51.1,61,30.25,10.0,WSW,9.2,16.1,N/A,,Partly Cloudy,240,2012-12-03 15:53:00
11:53 AM,66.9,51.1,57,30.22,10.0,SW,10.4,-,N/A,,Clear,220,2012-12-03 16:53:00
12:53 PM,69.1,52.0,54,30.19,10.0,WSW,11.5,-,N/A,,Clear,250,2012-12-03 17:53:00
1:53 PM,70.0,52.0,53,30.17,10.0,WSW,8.1,-,N/A,,Partly Cloudy,240,2012-12-03 18:53:00
2:53 PM,71.1,50.0,47,30.15,10.0,SSW,6.9,-,N/A,,Clear,210,2012-12-03 19:53:00
3:53 PM,70.0,48.9,47,30.14,10.0,South,6.9,-,N/A,,Clear,170,2012-12-03 20:53:00
4:53 PM,68.0,48.9,50,30.15,10.0,South,6.9,-,N/A,,Clear,180,2012-12-03 21:53:00
5:53 PM,64.9,48.0,54,30.16,10.0,South,4.6,-,N/A,,Clear,180,2012-12-03 22:53:00
6:53 PM,62.1,48.0,60,30.18,10.0,South,4.6,-,N/A,,Clear,190,2012-12-03 23:53:00
7:53 PM,61.0,48.0,62,30.19,10.0,SSW,3.5,-,N/A,,Clear,200,2012-12-04 00:53:00
8:53 PM,59.0,46.9,64,30.19,10.0,SSW,4.6,-,N/A,,Clear,200,2012-12-04 01:53:00
9:53 PM,59.0,46.9,64,30.18,10.0,South,5.8,-,N/A,,Clear,180,2012-12-04 02:53:00
10:53 PM,57.9,46.0,65,30.18,10.0,South,4.6,-,N/A,,Clear,180,2012-12-04 03:53:00
11:53 PM,54.0,45.0,72,30.19,10.0,Calm,Calm,-,N/A,,Clear,0,2012-12-04 04:53:00